[[{"header":{"parameterUnit":"m.s-1","parameterCategory":1,"la1":30.2991,"la2":30.254,"lo1":-89.0895,"lo2":-89.0444,"dy":0.0017,"dx":0.0017,"nx":28,"ny":28,"refTime":"2024-08-27T03:00:00:Z","depth":0,"parameterNumber":2,"parameterNumberName":"U-component_of_WINDS"},"data":[0,0,0,0,0,0,0,0,0,0,0,0,0,0,0,0,0,0,0,0,0,0,0,0,0,0,0,0,0,0,0,0,0,0,0,0,0,0,0,0,0,0,0,0,0,0,0,0,0,0,0,0,0,0,0,0,0,0,-4.3578,-4.3578,0,-4.3639,-4.364,-4.3641,-4.3562,-4.3559,-4.3557,-4.3554,-4.3612,-4.3616,-4.362,0,0,0,0,0,0,0,0,0,0,0,0,0,-4.3387,-4.3391,-4.3578,-4.3579,-4.3579,-4.3639,-4.364,-4.3641,-4.3563,-4.3559,-4.3556,-4.3553,-4.3611,-4.3616,-4.3621,0,0,0,0,0,0,0,0,0,0,0,0,0,-4.3461,-4.3392,-4.3578,-4.3548,-4.3546,-4.3639,-4.364,-4.3641,-4.3564,-4.3559,-4.3555,-4.3551,-4.3609,-4.3615,-4.3621,-4.3746,0,0,-4.3641,-4.3643,0,0,0,0,0,0,0,0,-4.3457,-4.3468,-4.3551,-4.355,-4.3548,-4.3589,-4.3594,-4.3676,-4.3565,-4.3557,-4.3554,-4.3549,-4.3608,-4.3614,-4.3634,-4.3749,-4.3751,-4.3641,-4.3645,-4.3648,-4.365,0,0,0,0,0,0,0,-4.3452,-4.3465,-4.3602,-4.3553,-4.355,-4.3529,-4.3535,-4.3609,-4.3605,-4.3557,-4.3551,-4.356,-4.3606,-4.3629,-4.3635,-4.3752,-4.3641,-4.3647,-4.3651,-4.3653,-4.3968,-4.3973,0,0,0,0,0,0,-4.3451,-4.3462,-4.36,-4.3604,-4.3491,-4.3536,-4.3543,-4.358,-4.3604,-4.3604,-4.3564,-4.3556,-4.362,-4.3628,-4.3637,-4.3781,-4.3648,-4.3654,-4.3657,-4.3964,-4.3969,-4.3974,0,0,0,0,0,0,-4.3448,-4.3464,-4.3597,-4.3531,-4.3547,-4.3544,-4.3586,-4.3583,-4.3606,-4.3609,-4.3607,-4.3588,-4.3617,-4.3628,-4.3719,-4.3782,-4.3657,-4.3662,-4.3958,-4.3965,-4.3972,-4.4073,0,0,0,0,0,0,-4.3442,-4.3464,-4.3512,-4.3533,-4.3551,-4.368,-4.359,-4.3588,-4.3618,-4.3609,-4.3632,-4.3631,-4.3614,-4.371,-4.3725,-4.3789,-4.3667,-4.3952,-4.3961,-4.3969,-4.4064,-4.4083,-4.4099,0,0,0,0,0,-4.3436,-4.3538,-4.3515,-4.3532,-4.3611,-4.3684,-4.3694,-4.3674,-4.3623,-4.3671,-4.3673,-4.3631,-4.3774,-4.372,-4.3737,-4.3803,-4.3948,-4.3959,-4.3969,-4.4056,-4.4079,-4.4098,0,0,0,0,0,0,-4.3522,-4.354,-4.3515,-4.3627,-4.3655,-4.3671,-4.373,-4.3699,-4.374,-4.373,-4.3702,-4.3707,-4.3804,-4.3813,-4.3753,-4.3923,-4.3852,-4.3867,-4.3913,-4.3935,-4.3952,-4.3946,-4.3672,0,0,0,0,0,-4.3555,-4.3614,-4.3626,-4.3723,-4.3739,-4.3733,-4.3764,-4.3746,-4.3773,-4.3784,-4.3792,-4.3819,-4.3869,-4.3903,-4.395,-4.4066,-4.4068,-4.412,-4.4137,-4.4152,-4.4163,-4.4222,-4.4244,-4.4008,-4.4008,-4.4008,0,0,-4.3621,-4.3639,-4.3677,-4.3741,-4.3761,-4.3821,-4.3743,-4.381,-4.3853,-4.3793,-4.3879,-4.3887,-4.3914,-4.4018,-4.4064,-4.4028,-4.4229,-4.4165,-4.4176,-4.4179,-4.4235,-4.4257,-4.4277,-4.4015,-4.4014,-4.4013,0,0,-4.3773,-4.3794,-4.3876,-4.3897,-4.3929,-4.3924,-4.3944,-4.3965,-4.3968,-4.4054,-4.401,-4.4061,-4.415,-4.417,-4.4192,-4.4353,-4.4314,-4.4369,-4.4458,-4.4516,-4.4534,-4.455,-4.4604,-4.4624,-4.4381,-4.4381,-4.4382,0,-4.3851,-4.3942,-4.3922,-4.3992,-4.402,-4.3971,-4.4052,-4.4074,-4.4118,-4.4138,-4.4098,-4.4208,-4.4223,-4.4329,-4.4368,-4.4389,-4.4408,-4.4364,-4.4534,-4.455,-4.4564,-4.4615,-4.4636,-4.4388,-4.4387,-4.4386,-4.4386,0,-4.4035,-4.4098,-4.416,-4.4206,-4.4241,-4.4317,-4.4306,-4.4345,-4.4324,-4.4323,-4.441,-4.4428,-4.4476,-4.4501,-4.4481,-4.4604,-4.458,-4.4538,-4.4466,-4.4593,-4.464,-4.466,-4.4396,-4.4394,-4.4392,-4.4391,0,0,-4.4239,-4.4274,-4.4297,-4.4316,-4.4347,-4.4394,-4.4467,-4.4516,-4.4548,-4.4581,-4.4639,-4.4716,-4.4677,-4.4702,-4.4685,-4.4736,-4.4858,-4.4687,-4.4687,-4.4715,-4.499,-4.5019,-4.5042,-4.4834,-4.4838,-4.4841,-4.4986,0,-4.4388,-4.4515,-4.45,-4.462,-4.4677,-4.4631,-4.4694,-4.4719,-4.4721,-4.4767,-4.4768,-4.4821,-4.4767,-4.4782,-4.4831,-4.4833,-4.4912,-4.4822,-4.4885,-4.4887,-4.4875,-4.5067,-4.5098,-4.5234,-4.5005,-4.5008,-4.5011,0,-4.4578,-4.4619,-4.4746,-4.4767,-4.479,-4.4847,-4.489,-4.4936,-4.4963,-4.496,-4.4989,-4.4962,-4.5033,-4.4963,-4.5058,-4.4997,-4.5022,-4.5027,-4.5032,-4.5033,-4.4954,-4.507,-4.5278,-4.5297,-4.504,-4.5038,-4.5036,0,-4.4711,-4.4797,-4.4883,-4.4902,-4.493,-4.497,-4.4984,-4.5007,-4.5037,-4.5074,-4.5092,-4.5138,-4.5161,-4.5196,-4.5181,-4.5132,-4.5278,-4.5207,-4.5275,-4.5275,-4.5304,-4.5302,-4.5515,-4.5328,-4.5327,-4.5327,-4.5326,0,-4.4876,-4.4954,-4.4943,-4.4996,-4.5081,-4.5063,-4.5147,-4.5155,-4.5176,-4.5227,-4.5192,-4.524,-4.522,-4.5267,-4.5257,-4.5335,-4.5347,-4.5344,-4.534,-4.5345,-4.5345,-4.5358,-4.5347,-4.5332,-4.5331,-4.533,-4.5329,0,-4.5036,-4.5033,-4.5123,-4.5143,-4.515,-4.5211,-4.5227,-4.5275,-4.5275,-4.534,-4.5355,-4.5353,-4.5406,-4.5396,-4.5455,-4.5448,-4.5545,-4.5531,-4.5536,-4.5531,-4.5598,-4.5591,-4.5823,-4.5852,-4.565,-4.5652,-4.5654,0,-4.514,-4.52,-4.5226,-4.5259,-4.5275,-4.5329,-4.5359,-4.5343,-4.5376,-4.5411,-4.5455,-4.5506,-4.5545,-4.5632,-4.5635,-4.5679,-4.5663,-4.5742,-4.5669,-4.5672,-4.566,-4.5655,-4.5659,-4.5755,-4.5757,-4.5759,-4.5761,0,-4.5324,-4.5319,-4.5366,-4.5412,-4.545,-4.5485,-4.5516,-4.5544,-4.5531,-4.5569,-4.5624,-4.5655,-4.5716,-4.5765,-4.5807,-4.5818,-4.5786,-4.5784,-4.5801,-4.5805,-4.5804,-4.5802,-4.5571,-4.5778,-4.5776,-4.5775,-4.5774,-4.5773,-4.5456,-4.5506,-4.5532,-4.5585,-4.5607,-4.5637,-4.5683,-4.5688,-4.5735,-4.5783,-4.5771,-4.5832,-4.5856,-4.5909,-4.5925,-4.5972,-4.5942,-4.5968,-4.5974,-4.598,-4.5986,-4.5801,-4.598,-4.5979,-4.5979,-4.5978,-4.5978,0,-4.5635,-4.565,-4.5699,-4.5744,-4.5785,-4.5754,-4.5787,-4.5822,-4.5878,-4.5904,-4.5944,-4.6006,-4.6054,-4.6061,-4.6106,-4.6142,-4.6128,-4.6154,-4.6149,-4.6151,-4.6012,-4.599,-4.6164,-4.6164,-4.6164,-4.6164,-4.6164,-4.6164,-4.5732,-4.5813,-4.5812,-4.5903,-4.5917,-4.5978,-4.5999,-4.6026,-4.6046,-4.6118,-4.6158,-4.6163,-4.6181,-4.6227,-4.6269,-4.627,-4.6286,-4.6317,-4.6311,-4.618,-4.6161,-4.6143,-4.6123,-4.6322,-4.6322,-4.6446,-4.6447,-4.6448]},{"header":{"parameterUnit":"m.s-1","parameterCategory":1,"la1":30.2991,"la2":30.254,"lo1":-89.0895,"lo2":-89.0444,"dy":0.0017,"dx":0.0017,"nx":28,"ny":28,"refTime":"2024-08-27T03:00:00:Z","depth":0,"parameterNumber":3,"parameterNumberName":"V-component_of_WINDS"},"data":[0,0,0,0,0,0,0,0,0,0,0,0,0,0,0,0,0,0,0,0,0,0,0,0,0,0,0,0,0,0,0,0,0,0,0,0,0,0,0,0,0,0,0,0,0,0,0,0,0,0,0,0,0,0,0,0,0,0,1.06,1.0601,0,1.0706,1.0707,1.0709,1.0726,1.0725,1.0724,1.0723,1.0832,1.0835,1.0839,0,0,0,0,0,0,0,0,0,0,0,0,0,1.0414,1.0417,1.06,1.0601,1.0603,1.0706,1.0708,1.0709,1.0726,1.0725,1.0724,1.0722,1.083,1.0835,1.0839,0,0,0,0,0,0,0,0,0,0,0,0,0,1.0505,1.0418,1.06,1.0624,1.0627,1.0706,1.0708,1.0709,1.0726,1.0725,1.0723,1.0722,1.0829,1.0834,1.084,1.0903,0,0,1.0857,1.086,0,0,0,0,0,0,0,0,1.05,1.0512,1.0619,1.0622,1.0626,1.0701,1.0682,1.0774,1.0726,1.0688,1.0723,1.0721,1.0789,1.0798,1.0821,1.0908,1.0912,1.0858,1.0861,1.0864,1.0865,0,0,0,0,0,0,0,1.0493,1.0507,1.0642,1.062,1.0625,1.063,1.0641,1.0699,1.0745,1.0692,1.0693,1.0705,1.0791,1.0816,1.0824,1.0914,1.0858,1.0863,1.0866,1.0868,1.106,1.1062,0,0,0,0,0,0,1.0483,1.0502,1.0639,1.0645,1.0558,1.0634,1.0647,1.0678,1.0745,1.0754,1.0706,1.0706,1.0807,1.0817,1.0828,1.0907,1.0864,1.0869,1.0872,1.1059,1.1061,1.1063,0,0,0,0,0,0,1.0478,1.0495,1.0634,1.0574,1.0592,1.0639,1.0674,1.0681,1.0706,1.0756,1.0764,1.0723,1.0806,1.082,1.0885,1.0911,1.0871,1.0876,1.1057,1.1059,1.1062,1.1065,0,0,0,0,0,0,1.0473,1.0493,1.0517,1.0574,1.0595,1.0689,1.0676,1.0684,1.0716,1.0716,1.0774,1.0782,1.0806,1.0876,1.089,1.0918,1.0881,1.1054,1.1058,1.1061,1.1062,1.1067,1.1071,0,0,0,0,0,1.0466,1.0513,1.0518,1.0534,1.0626,1.069,1.0702,1.0729,1.0718,1.0742,1.0775,1.078,1.0906,1.0883,1.0899,1.0928,1.1053,1.1057,1.1061,1.106,1.1066,1.1071,0,0,0,0,0,0,1.0456,1.0521,1.0527,1.0593,1.0636,1.0693,1.0724,1.0733,1.078,1.0778,1.0809,1.0823,1.0886,1.0914,1.0887,1.0994,1.0979,1.0986,1.0973,1.0979,1.0983,1.0975,1.0886,0,0,0,0,0,1.0462,1.0508,1.0562,1.0616,1.0637,1.0677,1.0706,1.0723,1.0769,1.0787,1.0824,1.0869,1.0919,1.095,1.0999,1.1067,1.1081,1.1096,1.11,1.1103,1.1109,1.1149,1.1157,1.1075,1.1075,1.1075,0,0,1.0473,1.0514,1.0541,1.0615,1.065,1.0698,1.0692,1.0743,1.0779,1.0795,1.0858,1.0888,1.0939,1.1007,1.1038,1.1032,1.1135,1.1108,1.1111,1.1115,1.1154,1.1162,1.1169,1.1078,1.1077,1.1077,0,0,1.0519,1.0554,1.0604,1.064,1.0694,1.0721,1.0732,1.0789,1.0809,1.0873,1.0887,1.0931,1.1015,1.1052,1.1082,1.1146,1.1153,1.1161,1.1183,1.1222,1.1228,1.1234,1.1257,1.1265,1.1166,1.1167,1.1167,0,1.0526,1.0599,1.0628,1.0679,1.0711,1.0729,1.0779,1.0813,1.088,1.0902,1.0894,1.1003,1.1039,1.1116,1.1132,1.1155,1.117,1.1154,1.1225,1.1231,1.1237,1.126,1.1268,1.1167,1.1167,1.1167,1.1167,0,1.0606,1.0657,1.069,1.0755,1.0792,1.0842,1.0879,1.0913,1.0928,1.0956,1.1023,1.1067,1.1126,1.1146,1.116,1.1226,1.122,1.1218,1.1203,1.1245,1.1267,1.1276,1.1168,1.1168,1.1168,1.1167,0,0,1.0646,1.0728,1.074,1.0771,1.0833,1.0873,1.0926,1.0983,1.1012,1.1059,1.1104,1.1177,1.1176,1.121,1.1229,1.1264,1.1313,1.1258,1.126,1.1267,1.1389,1.139,1.14,1.1318,1.132,1.1322,1.1385,0,1.0699,1.0793,1.0822,1.09,1.0948,1.0967,1.1013,1.1057,1.1085,1.1131,1.1163,1.1214,1.1209,1.123,1.1265,1.1299,1.1338,1.1295,1.1362,1.1364,1.1347,1.1411,1.1412,1.147,1.1394,1.1395,1.1397,0,1.0773,1.0822,1.0906,1.0964,1.0985,1.1026,1.1083,1.1126,1.1177,1.1195,1.1235,1.1252,1.1309,1.1292,1.1371,1.1342,1.1371,1.1393,1.1396,1.1402,1.1382,1.142,1.1488,1.1497,1.141,1.1409,1.1408,0,1.0795,1.0881,1.0943,1.0969,1.1038,1.1067,1.1097,1.1147,1.1181,1.1231,1.1253,1.1309,1.1339,1.1383,1.1415,1.14,1.1493,1.1478,1.151,1.151,1.1528,1.1526,1.1602,1.1547,1.1547,1.1547,1.1547,0,1.0851,1.0902,1.0954,1.0992,1.105,1.1083,1.114,1.1171,1.1216,1.1261,1.1281,1.1323,1.1364,1.1412,1.1438,1.15,1.1514,1.1531,1.1537,1.1529,1.1527,1.1548,1.1545,1.1549,1.1549,1.1548,1.1548,0,1.0884,1.0921,1.099,1.1051,1.1068,1.1108,1.116,1.1199,1.1229,1.1286,1.1302,1.1349,1.1407,1.1444,1.1517,1.1535,1.1604,1.1609,1.1587,1.159,1.162,1.1617,1.1712,1.1727,1.1662,1.1662,1.1663,0,1.0917,1.0957,1.1023,1.1055,1.1085,1.1136,1.1172,1.1207,1.1243,1.1306,1.1337,1.1396,1.1445,1.1537,1.1579,1.1636,1.1642,1.1672,1.1651,1.1642,1.1643,1.164,1.1645,1.1675,1.1675,1.1676,1.1676,0,1.0972,1.099,1.1039,1.1096,1.1138,1.1184,1.1231,1.1256,1.13,1.134,1.1399,1.1438,1.1514,1.1573,1.1634,1.1666,1.1679,1.1683,1.1694,1.1685,1.1671,1.168,1.1596,1.168,1.168,1.1679,1.1679,1.1679,1.1007,1.1044,1.1097,1.1152,1.1191,1.1235,1.1274,1.1311,1.1361,1.1426,1.1444,1.1507,1.1559,1.1643,1.1677,1.1727,1.1723,1.1739,1.1742,1.1746,1.1746,1.1663,1.1738,1.1738,1.1738,1.1738,1.1738,0,1.1064,1.1099,1.115,1.1215,1.126,1.1269,1.1321,1.1358,1.1413,1.1461,1.1509,1.1579,1.1638,1.1685,1.1745,1.1777,1.1784,1.1791,1.1789,1.1797,1.1746,1.1731,1.1784,1.1784,1.1784,1.1784,1.1784,1.1784,1.1098,1.1162,1.1185,1.1269,1.1305,1.1366,1.1396,1.1437,1.1476,1.1553,1.1602,1.1632,1.1681,1.1745,1.18,1.1812,1.1834,1.184,1.1854,1.1805,1.18,1.1795,1.1781,1.1844,1.1844,1.19,1.1901,1.1901]}]]